GW3154 Weather Reports


Display with metric or nautical units.
time (UTC)temp
F
wind
direction
speed
MPH
gust
MPH
rain 1hr
in
rain 24hr
in
rain mn
in
humidity
%
barometer
mb
20260903143335 55 152 1.0 2.0 0.07 0.07 0.07 97 1011.8
20260903141833 55 194 1.0 2.0 0.00 0.06 0.06 97 1011.6
20260903140330 55 169 1.0 1.0 0.12 0.06 0.06 96 1011.7
20260903134826 55 162 0.0 1.0 0.05 0.04 0.04 95 1011.5
20260903133321 55 195 0.0 0.0 0.00 0.02 0.02 95 1011.4
20260903131818 55 173 2.0 3.0 0.00 0.01 0.01 94 1011.2
20260903130318 55 186 0.0 1.0 0.00 0.01 0.01 95 1011.3
20260903124817 55 173 0.0 1.0 0.00 0.01 0.01 95 1011.0
20260903123317 55 171 1.0 2.0 0.00 0.01 0.01 95 1011.3
20260903121814 55 185 1.0 3.0 0.00 0.01 0.01 95 1011.4
20260903120311 55 156 2.0 3.0 0.00 0.01 0.01 95 1011.4
20260903114811 55 173 4.0 6.0 0.00 0.01 0.01 96 1011.4
20260903113309 55 173 1.0 2.0 0.00 0.01 0.01 97 1011.2
20260903111804 55 213 2.0 2.0 0.00 0.01 0.01 97 1011.6
20260903110303 55 182 2.0 3.0 0.00 0.00 0.00 95 1011.5
20260903104803 56 179 3.0 5.0 0.00 0.00 0.00 94 1011.4
20260903103302 56 147 3.0 3.0 0.00 0.00 0.00 94 1011.5
20260903101802 56 182 1.0 1.0 0.00 0.00 0.00 94 1011.6
20260903100259 56 170 1.0 2.0 0.00 0.00 0.00 94 1011.6
20260903094758 56 173 1.0 1.0 0.00 0.00 0.00 95 1011.6
20260903093255 56 185 1.0 2.0 0.00 0.00 0.00 95 1011.6
20260903091755 55 169 2.0 6.0 0.00 0.00 0.00 95 1011.7
20260903090250 56 174 0.0 1.0 0.00 0.00 0.00 95 1011.8
20260903084747 56 158 1.0 1.0 0.00 0.00 0.00 95 1011.9
20260903083243 56 179 1.0 2.0 0.00 0.00 0.00 94 1012.0
20260903081739 56 216 3.0 5.0 0.00 0.00 0.00 94 1011.9
20260903080239 55 157 3.0 5.0 0.00 0.00 0.00 95 1012.0
20260903074739 55 183 2.0 2.0 0.00 0.00 0.00 97 1012.1
20260903073236 55 170 2.0 2.0 0.00 0.00 0.00 96 1011.9
20260903071731 55 173 2.0 2.0 0.00 0.00 0.00 96 1011.8
20260903070227 55 181 3.0 3.0 0.00 0.00 0.00 96 1011.7
20260903064726 56 217 1.0 2.0 0.00 0.41 0.41 96 1011.8
20260903063225 56 246 2.0 2.0 0.00 0.41 0.41 96 1011.7
20260903061723 56 180 1.0 3.0 0.00 0.41 0.41 96 1011.9
20260903060223 56 187 1.0 1.0 0.00 0.41 0.41 95 1011.9
20260903054720 56 112 1.0 2.0 0.00 0.41 0.41 95 1011.8
20260903053218 57 157 2.0 2.0 0.00 0.41 0.41 95 1011.9
20260903051716 56 166 2.0 3.0 0.00 0.41 0.41 96 1011.8
20260903050212 56 180 3.0 3.0 0.00 0.41 0.41 97 1011.7
20260903044711 56 172 1.0 2.0 0.00 0.41 0.41 97 1011.6
20260903043208 56 272 2.0 2.0 0.00 0.41 0.41 98 1011.5
20260903041705 56 178 1.0 3.0 0.00 0.41 0.41 97 1011.3
20260903040201 57 247 1.0 2.0 0.00 0.41 0.41 96 1011.4
20260903034659 57 192 2.0 5.0 0.00 0.41 0.41 96 1011.3
20260903033155 57 184 2.0 2.0 0.00 0.41 0.41 95 1011.0
20260903031653 58 188 2.0 2.0 0.00 0.41 0.41 93 1011.1
20260903030150 58 179 1.0 2.0 0.00 0.41 0.41 92 1010.7
20260903024648 58 193 1.0 1.0 0.00 0.41 0.41 92 1010.6
20260903023143 58 175 0.0 1.0 0.00 0.41 0.41 91 1010.3
20260903021643 59 179 0.0 1.0 0.00 0.41 0.41 92 1010.5
20260903020139 59 180 3.0 3.0 0.00 0.41 0.41 91 1010.2
20260903014635 59 175 0.0 1.0 0.00 0.41 0.41 91 1009.8
20260903013130 58 165 2.0 3.0 0.00 0.41 0.41 92 1010.2
20260903011628 59 257 1.0 2.0 0.00 0.41 0.41 92 1009.9
20260903010128 60 192 1.0 1.0 0.00 0.41 0.41 94 1009.7
20260903004624 59 174 0.0 1.0 0.00 0.41 0.41 96 1009.7
20260903003122 59 183 1.0 1.0 0.00 0.41 0.41 97 1009.7
20260903001618 59 182 1.0 1.0 0.00 0.40 0.40 98 1009.5
20260903000113 58 198 1.0 1.0 0.00 0.40 0.40 97 1009.3
20260902234613 57 197 1.0 1.0 0.05 0.40 0.40 97 1009.4
20260902233113 58 224 1.0 2.0 0.47 0.38 0.38 96 1009.1
20260902231613 59 184 3.0 5.0 0.00 0.30 0.30 97 1008.9
20260902230112 59 182 3.0 3.0 0.00 0.30 0.30 97 1008.8
20260902224611 59 153 3.0 3.0 0.05 0.30 0.30 97 1008.7
20260902223109 60 163 7.0 10.0 0.07 0.28 0.28 96 1008.3
20260902221607 60 216 4.0 6.0 0.05 0.27 0.27 94 1008.4
20260902214601 60 235 6.0 9.0 0.00 0.26 0.26 90 1008.5
20260902213101 60 237 3.0 5.0 0.00 0.26 0.26 91 1008.5
20260902211600 60 171 4.0 6.0 0.00 0.26 0.26 91 1008.4
20260902210055 61 214 6.0 9.0 0.00 0.26 0.26 89 1008.5
20260902204550 61 126 4.0 7.0 0.00 0.26 0.26 88 1008.1
20260902203045 60 198 5.0 6.0 0.00 0.26 0.26 90 1007.8
20260902201545 60 204 4.0 6.0 0.00 0.26 0.26 92 1007.7
20260902200042 59 181 4.0 6.0 0.00 0.26 0.26 94 1007.7
20260902194541 59 166 4.0 5.0 0.00 0.26 0.26 94 1007.5
20260902193038 59 177 4.0 6.0 0.07 0.26 0.26 95 1007.4
20260902191537 58 225 3.0 3.0 0.00 0.24 0.24 95 1007.5
20260902190034 58 194 2.0 2.0 0.05 0.23 0.23 96 1007.7
20260902184532 59 198 2.0 3.0 0.12 0.21 0.21 97 1007.7
20260902183032 58 171 2.0 2.0 0.19 0.19 0.19 97 1008.2
20260902181532 59 169 2.0 3.0 0.24 0.14 0.14 95 1008.0
20260902180028 59 182 2.0 2.0 0.00 0.09 0.09 92 1008.1
20260902174526 59 200 1.0 2.0 0.00 0.09 0.09 93 1008.3
20260902173021 59 174 1.0 1.0 0.12 0.09 0.09 93 1008.4
20260902171517 59 161 1.0 1.0 0.12 0.07 0.07 92 1008.6
20260902170016 59 179 5.0 7.0 0.12 0.04 0.04 90 1008.5
20260902164516 60 288 2.0 2.0 0.05 0.01 0.01 86 1008.4
20260902163015 62 209 0.0 0.0 0.00 0.00 0.00 82 1008.1
20260902161511 63 205 3.0 3.0 0.00 0.00 0.00 77 1007.7
20260902160010 62 173 2.0 2.0 0.00 0.00 0.00 77 1007.8
20260902154502 62 201 1.0 1.0 0.00 0.00 0.00 80 1007.9
20260902153003 61 173 2.0 3.0 0.00 0.00 0.00 82 1008.3
20260902151502 60 159 0.0 0.0 0.00 0.00 0.00 85 1008.3
20260902145957 60 187 0.0 0.0 0.00 0.00 0.00 86 1008.6
20260902144455 60 180 1.0 1.0 0.00 0.00 0.00 86 1008.6